Meath Environmental Platform

Observations for Trim Market St

Time AQI Temp °C Hum % Pres Pa CO μg/m³ H₂S μg/m³ NO μg/m³ NO₂ μg/m³ O₃ μg/m³ SO₂ μg/m³ PM1 μg/m³ PM2.5 μg/m³ PM10 μg/m³
Saturday 15 August 2026
22:41 3 17.9 54 55,824 0.08 0 1.14 5.66 63.15 0 0.71 2.81 3.18
22:40 3 17.9 54 55,822 0 0 1.14 6.14 63 0 0 2.3 2.45
22:39 3 17.9 54 55,818 0 0 1.17 6.03 63.03 0 0 1.79 1.97
22:38 3 17.9 54 55,811 0 0 1.15 7.23 61.42 0 0 2.3 2.45
22:37 3 18 54 55,813 0 0 1.16 7.02 62.13 0 0 2.81 3.18
22:36 3 18 54 55,816 0 0 1.13 5.53 63.34 0 0 2.3 2.45
22:35 3 18 54 55,825 0 0 1.12 5.77 63.43 0 0 1.79 1.97
22:33 3 18.1 54 55,848 0 0 1.11 6.87 60.21 0 0 2.3 2.45
22:31 3 18.1 54 55,859 0 0 1.13 7.59 61.31 0 0 2.3 2.45
22:30 3 18.1 54 55,861 0 0 1.13 9.38 56.64 0 0 2.81 3.18
22:23 3 18.3 54 55,934 0 0 1.11 6.06 62.36 0 0 1.79 1.97
22:22 3 18.3 54 55,975 0 0 1.13 5.5 62.48 0 0 2.29 2.46
22:18 3 18.4 54 56,138 0.01 0 1.18 6.45 64.44 0 0 2.29 2.47
22:17 3 18.4 54 56,152 0 0 1.14 5.93 62.69 0 0.71 2.79 3.19
22:10 3 18.6 54 56,323 0 0 1.14 8.91 68.45 0 0 2.29 2.47
22:09 3 18.6 54 56,277 0 0 1.15 9.08 67.14 0 0 1.78 2.47
22:08 3 18.6 54 56,242 0 0 1.13 8.52 67.12 0 0 2.3 2.46
22:07 3 18.7 54 56,202 0 0 1.15 8.5 66.49 0 0 1.79 1.97
22:06 3 18.7 54 56,177 0.03 0 1.13 9.36 63.4 0 0 2.3 2.45
22:05 3 18.7 54 56,152 0.05 0 1.16 16.58 45.9 0 0.71 2.81 3.18